www.pogodaiklimat.ru

АРХИВ ПОГОДЫ в Краснодаре

Время (UTC), дата Ветер
(напр.,м/с)
 
Видим.   Явления Облачность Т
(С)
Тd
(С)
f
(%)
Тe
(С)
Тes
(С)
Комфортность P
(гПа)
Po
(гПа)
Тmin
(С)
Tmax
(С)
R
(мм)
S
(см)
09 21.08 СВ 2
{10}
10 км 8/0
[Ac trans Ci fib]
+27.4 +11.4 37 +28 +37 жарко 1016.6 1013.2
12 21.08 СВ 3
{10}
10 км 8/8 1000 м
[Sc Ac trans]
+29.6 +10.8 31 +30 +32 жарко 1015.4 1012.0
15 21.08 В 3
{11}
10 км 3/3 1000 м
[Sc]
+28.8 +10.9 33 +29 +30 жарко 1014.8 1011.3 +30.0
18 21.08 СВ 3 10 км ясно +24.6 +12.5 47 +26 +26 жарко 1015.7 1012.3
21 21.08 СВ 2 10 км ясно +21.8 +12.8 57 +24 +24 комфорт 1015.7 1012.2
00 22.08 СВ 2 10 км ясно +19.5 +7.1 45 +21 +21 комфорт 1015.2 1011.6
03 22.08 СВ 1 10 км ясно +18.6 +6.5 45 +20 +20 по сезону 1014.9 1011.3 +18.6
06 22.08 СВ 4-10
{10}
10 км ясно +23.5 +12.0 48 +25 +30 комфорт 1014.9 1011.4 +18.6
09 22.08 СВ 4-10
{10}
10 км 3/3 1000 м
[Cu hum]
+28.0 +13.1 40 +30 +37 жарко 1013.7 1010.3
12 22.08 СВ 4
{11}
10 км 3/1 1000 м
[Cu hum Ac lent]
+30.2 +10.6 30 +30 +35 жарко 1012.5 1009.1
15 22.08 В 3
{10}
10 км 3/0
[Ac trans Ci fib]
+29.3 +9.8 30 +29 +30 жарко 1011.7 1008.2 +30.4
18 22.08 СВ 2 10 км 9/0
[Ac trans Ci fib]
+25.3 +8.9 35 +26 +26 жарко 1012.0 1008.5
21 22.08 СВ 2 10 км 5/0
[Ac trans Ci fib]
+23.1 +10.9 46 +25 +25 комфорт 1011.3 1007.8
00 23.08 СВ 1 10 км 4/0
[Ac trans Ci fib]
+20.7 +11.7 56 +24 +24 комфорт 1010.7 1007.2
03 23.08 СВ 1 10 км 3/1 1000 м
[Sc diur, vesp Ac trans]
+19.1 +12.6 66 +21 +21 комфорт 1010.7 1007.2 +19.1
06 23.08 СВ 2 10 км 10/1 1000 м
[Sc Ac trans Ci fib]
+22.0 +13.7 59 +25 +28 комфорт 1010.6 1007.1
09 23.08 В 2 10 км 10/3 1000 м
[Sc Ac trans Ci]
+25.9 +14.5 49 +28 +34 жарко 1010.1 1006.7
12 23.08 В 1 10 км 9/5 1000 м
[Cb cap Ac trans]
+27.8 +15.0 46 +30 +33 жарко 1009.1 1005.7
15 23.08 В 2 10 км 9/5 1000 м
[Cb cap Ac trans]
+26.6 +15.3 50 +29 +30 жарко 1008.8 1005.3 +28.2
18 23.08 штиль 0 10 км 9/0
[Ac trans]
+23.8 +18.4 72 +28 +28 душно 1008.6 1005.2
21 23.08 В 1 10 км 8/4 1000 м
[Sc Ac trans]
+22.0 +16.8 72 +26 +26 душно 1008.0 1004.5
00 24.08 В 2 10 км слабый ливневой дождь 8/8 1000 м
[Cb cap]
+21.3 +15.4 69 +24 +24 комфорт 1007.7 1004.2
03 24.08 С 2 2000 м ливневой дождь 10/10 600 м
[Cb cap]
+20.3 +15.9 76 +24 +24 комфорт 1008.6 1005.1 +20.3 3
06 24.08 З 1 4000 м гроза, ливневой дождь 10/10 600 м
[Cb cap]
+17.1 +16.3 95 +18 +18 холодно 1010.2 1006.7 +16.8
09 24.08 З 1 10 км {гроза, ливн. осадки} 10/10 1000 м
[Sc diur, vesp]
+21.0 +18.7 87 +27 +27 душно 1010.3 1006.8
12 24.08 ЮЗ 1 10 км {гроза, ливн. осадки} 10/10 600 м
[Cb cap]
+24.3 +18.2 69 +29 +29 душно 1010.3 1006.8
15 24.08 В 2 10 км 10/10 600 м
[Cb cap]
+23.1 +13.7 55 +26 +26 жарко 1012.2 1008.7 +26.2 44
18 24.08 СВ 2 10 км 9/3 1000 м
[Sc Ac trans]
+20.7 +12.7 60 +24 +24 комфорт 1013.9 1010.4
21 24.08 СВ 2 10 км 8/0
[Ac trans Ci]
+19.7 +12.6 64 +22 +22 комфорт 1015.2 1011.7
00 25.08 СВ 2 10 км 10/4 1000 м
[Sc Ac und]
+18.9 +12.1 65 +20 +20 тепло 1015.1 1011.6
03 25.08 СВ 2 10 км 10/1 1000 м
[Sc Ac trans Ci fib]
+18.1 +5.3 43 +19 +19 по сезону 1015.8 1012.2 +18.1
06 25.08 СВ 4
{10}
10 км 9/4 1000 м
[Cb calv Ac trans]
+19.0 -0.4 27 +19 +20 прохладно 1016.8 1013.2 +18.1
09 25.08 СВ 3
{11}
10 км 9/0
[Ac trans Ci fib]
+24.0 +2.4 24 +23 +30 комфорт 1016.4 1012.9
12 25.08 СВ 4
{12}
10 км 9/3 1000 м
[Sc Ac trans]
+24.8 +2.4 23 +24 +26 комфорт 1015.5 1012.0
15 25.08 В 3
{12}
10 км 8/0
[Ac trans Ci fib]
+24.9 +5.7 29 +25 +25 комфорт 1014.7 1011.2 +25.9
18 25.08 СВ 1 10 км 9/8 1000 м
[Sc Ac trans]
+22.1 +6.5 36 +23 +23 комфорт 1015.4 1011.9
21 25.08 СВ 2 10 км 6/0
[Ac trans Ci fib]
+19.4 -1.6 24 +20 +20 по сезону 1015.2 1011.7
00 26.08 СВ 2 10 км 6/0
[Ac trans Ci fib]
+17.1 -2.5 26 +18 +18 по сезону 1015.4 1011.9
03 26.08 СВ 1 10 км 3/3 1000 м
[Sc diur, vesp Ci fib]
+15.3 -2.1 30 +16 +16 прохладно 1016.7 1013.1 +15.3
06 26.08 СВ 1 10 км 8/0
[Ci]
+21.1 +3.7 32 +21 +28 комфорт 1017.3 1013.8 +15.1
09 26.08 В 4
{10}
10 км 4/0
[Ci sp]
+26.5 +6.9 29 +24 +33 комфорт 1016.7 1013.3
12 26.08 СВ 2 10 км 4/0
[Ci sp]
+28.9 +8.1 27 +28 +37 жарко 1016.3 1012.8
15 26.08 СВ 2 10 км 3/0
[Ac trans Ci fib]
+27.6 +7.7 28 +27 +28 жарко 1016.1 1012.6 +28.9
18 26.08 СВ 2 10 км ясно +23.6 +6.3 33 +24 +24 комфорт 1017.2 1013.7
21 26.08 В 1 10 км ясно +20.5 +6.3 40 +23 +23 комфорт 1017.4 1013.9
00 27.08 СВ 1 10 км ясно +18.5 +8.4 52 +20 +20 тепло 1017.6 1014.0
03 27.08 В 1 10 км ясно +16.0 +7.1 55 +17 +17 прохладно 1018.3 1014.7 +15.2
06 27.08 СВ 2 10 км ясно +22.5 +10.6 47 +24 +31 комфорт 1018.7 1015.2
09 27.08 СВ 3 10 км ясно +27.8 +7.3 27 +27 +39 жарко 1018.5 1015.0
12 27.08 СВ 2 10 км 3/0
[Ci fib]
+30.1 +3.4 18 +28 +37 жарко 1017.5 1014.0
15 27.08 СВ 1 10 км 3/0
[Ci fib]
+29.4 +4.2 20 +28 +28 жарко 1017.0 1013.6 +31.3
18 27.08 СЗ 1 10 км 3/0
[Ci fib]
+20.8 +11.6 56 +24 +24 комфорт 1018.0 1014.4
21 27.08 штиль 0 10 км 1/0
[Ci fib]
+20.1 +6.7 42 +21 +21 комфорт 1018.1 1014.6
00 28.08 штиль 0 10 км ясно +16.8 +8.4 58 +17 +17 по сезону 1018.5 1014.9
03 28.08 штиль 0 10 км 3/0
[Ci fib]
+15.2 +11.4 78 +15 +15 холодно 1019.0 1015.4 +14.8
06 28.08 штиль 0 10 км 9/4 1000 м
[Sc Ac trans Cc]
+22.0 +9.4 45 +24 +27 комфорт 1019.9 1016.4

 

Местоположение метеостанции Краснодар (Краснодарский край, Россия): широта 45.03 долгота 39.15 высота над уровнем моря 34 м.

В архиве по умолчанию представлена погода в Краснодаре за последнюю неделю. Архивные данные за месяц целиком и за предыдущие месяцы, начиная с января 2011 года, Вы можете получить, выбрав интересующий диапазон дат из раскрывающегося списка и нажав кнопку "Ввод!".

Внимание! Время в таблицах - всемирное. Для получения местного времени необходимо прибавить поправку, которая в Краснодаре равна 3 ч.

Ветер - указаны скорость ветра в м/с - средняя за 10 мин, порывы в срок и между сроками (в фигурных скобках) и направление, откуда дует ветер: С - северный, СВ - северо-восточный, В - восточный, ЮВ - юго-восточный, Ю - южный, ЮЗ - юго-западный, З - западный, СЗ - северо-западный.
Видимость - горизонтальная дальность видимости в метрах или километрах. При видимости от 1 до 10 км при отсутствии осадков обычно наблюдается дымка, при ухудшении видимости до 1 км и менее - туман. В сухую погоду видимость может ухудшаться дымом, пылью или мглою.
Явления - указаны атмосферные явления, наблюдавшиеся в срок или в последний час перед сроком; фигурными скобками обозначены явления, наблюдавшиеся между сроками (за 1-3 часа до срока); квадратными скобками обозначены град или гололедные отложения с указанием их диаметра в мм.
Облачность - указаны через наклонную черту общая и нижняя облачность в баллах и высота нижней границы облаков в метрах; квадратными скобками обозначены формы облаков: Ci - перистые, Cs - перисто-слоистые, Cc - перисто-кучевые, Ac - высококучевые, As - высокослоистые, Sc - слоисто-кучевые, Ns - слоисто-дождевые, Cu - кучевые, Cb - кучево-дождевые. Подробнее классификацию облаков см. в Атласе облаков (PDF).
T - Температура воздуха - температура, измеренная на высоте 2 м над землей.
Td - Температура точки росы - температура, при понижении до которой содержащийся в воздухе водяной пар достигнет насыщения.
f - Относительная влажность воздуха - влажноcть воздуха, измеренная на высоте 2 м над землей.
Te - Эффективная температура - температура, которую ощущает одетый по сезону человек в тени. Характеристика душности погоды. При расчете учитывается влияние влажности воздуха и скорости ветра на теплоощущения человека.
Tes - Эффективная температура на солнце - температура, которую ощущает человек, с поправкой на солнечный нагрев. Характеристика знойности погоды. Зависит от высоты солнца над горизонтом, облачности и скорости ветра. Ночью, в пасмурную погоду, а также при ветре 12 м/с и более поправка равна нулю.
P - Атмосферное давление - приведенное к уровню моря атмосферное давление.
Po - Атмосферное давление - измеренное на уровне метеостанции атмосферное давление.
Tmin - Минимальная температура - минимум температуры воздуха на высоте 2 м над землей.
Tmax - Максимальная температура - максимум температуры воздуха на высоте 2 м над землей.
R - Количество осадков - Количество выпавших осадков, мм. При наведении курсора мыши на число - период времени, за который выпало указанное количество осадков.
S - Снежный покров - Высота снежного покрова, см. При наведении курсора мыши на число - состояние снежного покрова и степень покрытия местности в баллах.